Biloxi, MS

2:51 PM CDT on June 25, 2017 (GMT -0500)
Keesler Air Force Base

Weather History for KBIX - June, 2013

Change the Weather History Date:

Friday, June 14, 2013

  Actual Average Record
Temperature  
Mean Temperature 86 °F -  
Max Temperature 95 °F 88 °F 99 °F (1952)
Min Temperature 78 °F 73 °F 65 °F (1988)
Cooling Degree Days 22    
Growing Degree Days 36 (Base 50)    
Moisture  
Dew Point 73 °F    
Average Humidity 67    
Maximum Humidity 84    
Minimum Humidity 44    
Precipitation  
Precipitation 0.00 in - - ()
Sea Level Pressure  
Sea Level Pressure 29.91 in    
Wind  
Wind Speed 3 mph (NNE)    
Max Wind Speed 10 mph    
Max Gust Speed -    
Visibility 10 miles    
Events Rain    
Averages and records for this station are not official NWS values.
T = Trace of Precipitation, MM = Missing Value Source: NWS Daily Summary

Daily Weather History Graph

Daily Weather History Graph

Search for Another Location

Airport or City:

Trip Planner

Search our weather history database for the weather conditions in past years. The results will help you decide how hot, cold, wet, or windy it might be!

Date:

Astronomy

Jun. 14, 2013 Rise Set
Actual Time 5:53 AM CDT 7:59 PM CDT
Civil Twilight 5:25 AM CDT 8:26 PM CDT
Nautical Twilight 4:52 AM CDT 9:00 PM CDT
Astronomical Twilight 4:16 AM CDT 9:36 PM CDT
Moon 11:08 AM CDT (6/14) 11:57 PM CDT (6/14)
Length of Visible Light 15h 01m
Length of Day
14h 05m
Waxing Crescent, 30% of the Moon is Illuminated
Jun 14
Waxing Crescent
Jun 16
First Quarter
Jun 23
Full
Jun 29
Last Quarter
Jul 8
New

Hourly Weather History & Observations

Time (CDT) Temp. Heat Index Dew Point Humidity Pressure Visibility Wind Dir Wind Speed Gust Speed Precip Events Conditions
12:58 AM 81.9 °F 88.0 °F 74.5 °F 78% 29.94 in 10.0 mi Calm Calm - N/A   Clear
1:58 AM 81.5 °F 87.4 °F 74.3 °F 79% 29.92 in 10.0 mi Variable 4.6 mph - N/A   Partly Cloudy
2:58 AM 82.2 °F 88.5 °F 74.5 °F 77% 29.89 in 10.0 mi Variable 2.3 mph - N/A   Clear
3:58 AM 81.9 °F 87.7 °F 74.1 °F 77% 29.89 in 10.0 mi Variable 1.2 mph - N/A   Mostly Cloudy
4:58 AM 81.5 °F 86.7 °F 73.4 °F 76% 29.90 in 10.0 mi WNW 2.3 mph - N/A   Scattered Clouds
5:58 AM 80.2 °F 84.7 °F 73.4 °F 80% 29.93 in 10.0 mi NNE 3.5 mph - N/A   Mostly Cloudy
6:37 AM 80.6 °F 85.4 °F 73.4 °F 79% 29.91 in 9.0 mi Calm Calm - N/A Rain Light Rain
6:50 AM 80.6 °F 86.2 °F 75.2 °F 84% 29.91 in 10.0 mi Calm Calm - N/A   Mostly Cloudy
6:58 AM 79.7 °F - 74.7 °F 84% 29.92 in 10.0 mi Calm Calm - 0.00 in   Mostly Cloudy
7:58 AM 80.4 °F 85.6 °F 74.8 °F 83% 29.93 in 10.0 mi Variable 1.2 mph - N/A   Clear
8:58 AM 82.9 °F 89.7 °F 74.5 °F 75% 29.93 in 10.0 mi Variable 3.5 mph - N/A   Clear
9:58 AM 87.3 °F 97.7 °F 75.9 °F 69% 29.92 in 10.0 mi Variable 4.6 mph - N/A   Clear
10:58 AM 89.1 °F 100.8 °F 76.5 °F 66% 29.92 in 10.0 mi North 4.6 mph - N/A   Clear
11:58 AM 91.6 °F 104.3 °F 76.5 °F 61% 29.91 in 10.0 mi Variable 4.6 mph - N/A   Clear
12:58 PM 92.5 °F 105.3 °F 76.3 °F 59% 29.90 in 10.0 mi Variable 4.6 mph - N/A   Scattered Clouds
1:58 PM 91.9 °F 100.7 °F 73.2 °F 54% 29.89 in 10.0 mi Variable 5.8 mph - N/A   Scattered Clouds
2:58 PM 92.7 °F 101.1 °F 72.7 °F 52% 29.89 in 10.0 mi North 1.2 mph - N/A   Scattered Clouds
3:58 PM 94.5 °F 103.3 °F 72.3 °F 49% 29.88 in 10.0 mi NNE 5.8 mph - N/A   Scattered Clouds
4:58 PM 93.2 °F 97.7 °F 68.2 °F 44% 29.87 in 10.0 mi NNE 8.1 mph - N/A   Partly Cloudy
5:58 PM 91.8 °F 96.5 °F 68.7 °F 47% 29.87 in 10.0 mi NNE 9.2 mph - N/A   Scattered Clouds
6:58 PM 88.7 °F 91.1 °F 66.4 °F 47% 29.89 in 10.0 mi NNE 10.4 mph - N/A   Clear
7:58 PM 85.3 °F 89.1 °F 69.1 °F 58% 29.90 in 10.0 mi NNE 5.8 mph - N/A   Clear
8:58 PM 83.1 °F 86.8 °F 69.3 °F 63% 29.92 in 10.0 mi NNE 8.1 mph - N/A   Clear
9:58 PM 81.3 °F 84.6 °F 69.4 °F 67% 29.94 in 10.0 mi NNE 8.1 mph - N/A   Clear
10:58 PM 79.9 °F - 67.6 °F 66% 29.96 in 10.0 mi NE 9.2 mph - N/A   Clear
11:58 PM 78.1 °F - 67.1 °F 69% 29.95 in 10.0 mi NE 8.1 mph - N/A   Clear